User: anonymous   Login
Location: Brede
(50.9167°N, 0.6000°E)
Time: 09:42:56
(UTC+00:00)
Language:

NOSS 0 Rocket - Orbit

View from above orbital plane
View from above orbital plane
View from above satellite
View from above satellite

Ground track
Ground track

The orbit data is extracted from the following two-line orbital elements,

1  5679U 71110B   20293.69248636 -.00000019 +00000-0 +28239-4 0  9996
2  5679 069.9994 020.4852 0015294 246.5151 113.4342 13.85343860083124
Epoch (UTC): 19 October 2020 16:37:10
Eccentricity: 0.0015294
inclination: 69.9994°
perigee height: 934 km
apogee height: 956 km
right ascension of ascending node: 20.4852°
argument of perigee: 246.5151°
revolutions per day: 13.85343860
mean anomaly at epoch: 113.4342°
orbit number at epoch: 8312

The dashed part of the orbit path shows where the satellite is in the earth's shadow,  

DLR